Showing default

HULIANWANG DIGUI-13, 62973

Orbit data source: Space-Track

HULIANWANG DIGUI-13, 62973 is a payload satellite owned by Zhongguo Xingwang (CN) in LEO that was launched on Tue, 11 Feb 2025 UTC via a CHANG ZHENG 8A launch vehicle from the Wenchang Satellite Launch Center (WSC). Payload-class satellites include a variety of spacecraft equipped with specific instruments for various scientific and technological missions. These include communications satellites like Starlink; space stations such as the ISS; scientific satellites like the Hubble; Earth observation satellites from companies like Planet Labs, Umbra, and HawkEye 360; GPS; miniature CubeSats for education and research; and military/defense satellites.

Loading next visibility...
Identifier
62973, 2025-030C
Orbit
LEO
Country
Flag of CNCN / PRC
Related business
Manufacturer
CAST
Mission
Operational Civil Communications
Bus & Motor
XINGWANG C, Unknown motor
Mass
~700 kg wet, ~700 kg dry
Launch date (UTC)
2025-02-11 (1 year ago)
Launch vehicle
CHANG ZHENG 8A
Launch site
Wenchang Satellite Launch Center (WSC)
Object type
Payload
Rocket body
Debris
Shape & HBR
Box + 2 Pan, 2.2 m
Radar Cross Section
5.935 m², Large (>1 m²)

Expand to show TLE details & history
Last TLE update: 10 hours ago

TLE from 10 hours ago
0 HULIANWANG DIGUI-13
1 62973U 25030C   26127.17890237 -.00000085  00000-0  84817-4 0  9998
2 62973  50.0046  22.9012 0001088  28.2083 331.8848 13.29326127 60401
Epoch: 2026-05-07T04:17Z
TLE epoch observation values (Epoch: 2026-05-07T04:17:37.164Z)
Latitude
-0.00002°
Longitude
93.46757°
Altitude
1,149.09 km
Speed
7.28 km/s
True Right ascension
01h 31m 36s
True Declination
0° 00' 00"
Sunlit
Object was in daylight at epoch
Visualization orbit readout
Latitude
Unknown
Longitude
Unknown
Altitude
Unknown
Speed
Unknown
Apparent Right ascension
Unknown
Apparent Declination
Unknown
Sunlit
N/A
Visualization observer readout
Local Sidereal Time
22:19:10
Azimuth
Unknown
Elevation
Unknown
Doppler factor
Unknown
Orbital elements
Apogee altitude
1,150.83 km
Perigee altitude
1,149.192 km
Semi-major axis
7,528.148 km
Eccentricity
0.00011
Inclination
50.0046°
RAAN
22.9012°
Arg. of periapsis
28.2083°
True anomaly
331.87892°
Mean anomaly
331.8848°
Eccentric anomaly
331.88186°
Mean motion
3.32285 °/min
Orbital period
108.34 mins
BSTAR
0.000084817
Loading maneuver chart data...
Computing Atmospheric mass density...
Loading historical data...
Loading historical data...
Loading historical data...
Loading historical data...
Loading historical data...
Loading historical data...
Loading historical data...

Documentation

Showing up to 5 results
|